Radiation Dose at Monitoring Post of Fukushima Daini Nuclear Power Station
Date,Time,MP-1(microSv/h),MP-2(microSv/h),MP-3(microSv/h),MP-4(microSv/h),MP-5(microSv/h),MP-6(microSv/h),MP-7(microSv/h),Wind Direction,Wind Velocity(m/s),Rain
2022/11/09,00:00,0.159,0.142,0.228,0.219,0.217,0.125,0.080,northwest,3.4,No
2022/11/09,00:10,0.158,0.143,0.229,0.219,0.217,0.125,0.079,northwest,3.4,No
2022/11/09,00:20,0.158,0.144,0.228,0.218,0.217,0.125,0.080,northwest,2.5,No
2022/11/09,00:30,0.158,0.143,0.229,0.217,0.218,0.125,0.080,northwest,2.2,No
2022/11/09,00:40,0.158,0.143,0.228,0.219,0.217,0.126,0.080,north-northwest,2.7,No
2022/11/09,00:50,0.157,0.143,0.228,0.218,0.216,0.126,0.079,north-northwest,2.6,No
2022/11/09,01:00,0.157,0.142,0.228,0.218,0.216,0.125,0.080,northwest,2.5,No
2022/11/09,01:10,0.157,0.143,0.229,0.219,0.217,0.126,0.080,northwest,3.0,No
2022/11/09,01:20,0.157,0.142,0.229,0.218,0.216,0.124,0.080,west-northwest,3.3,No
2022/11/09,01:30,0.157,0.143,0.228,0.218,0.217,0.125,0.080,northwest,3.5,No
2022/11/09,01:40,0.158,0.143,0.228,0.218,0.217,0.125,0.080,west-northwest,4.1,No
2022/11/09,01:50,0.158,0.142,0.228,0.219,0.217,0.125,0.079,west-northwest,4.7,No
2022/11/09,02:00,0.156,0.143,0.230,0.220,0.218,0.125,0.079,west-northwest,5.6,No
2022/11/09,02:10,0.158,0.143,0.228,0.219,0.216,0.125,0.080,northwest,4.0,No
2022/11/09,02:20,0.158,0.143,0.229,0.218,0.216,0.125,0.079,northwest,2.8,No
2022/11/09,02:30,0.158,0.143,0.227,0.218,0.217,0.125,0.080,west-northwest,2.6,No
2022/11/09,02:40,0.158,0.143,0.229,0.219,0.217,0.125,0.079,northwest,2.1,No
2022/11/09,02:50,0.158,0.143,0.230,0.218,0.217,0.125,0.080,northwest,3.1,No
2022/11/09,03:00,0.159,0.143,0.229,0.218,0.218,0.125,0.080,northwest,5.5,No
2022/11/09,03:10,0.158,0.144,0.227,0.219,0.219,0.124,0.080,northwest,4.0,No
2022/11/09,03:20,0.157,0.142,0.227,0.219,0.216,0.126,0.080,north-northwest,3.1,No
2022/11/09,03:30,0.158,0.143,0.228,0.219,0.216,0.124,0.080,north,2.6,No
2022/11/09,03:40,0.157,0.142,0.229,0.218,0.218,0.124,0.080,north-northwest,2.5,No
2022/11/09,03:50,0.157,0.142,0.228,0.218,0.217,0.125,0.080,north,2.4,No
2022/11/09,04:00,0.157,0.143,0.229,0.219,0.216,0.125,0.080,north-northwest,1.7,No
2022/11/09,04:10,0.158,0.143,0.228,0.218,0.216,0.124,0.080,north-northwest,1.4,No
2022/11/09,04:20,0.158,0.143,0.228,0.218,0.217,0.125,0.080,north,1.1,No
2022/11/09,04:30,0.158,0.143,0.229,0.218,0.217,0.125,0.080,north,1.4,No
2022/11/09,04:40,0.158,0.143,0.228,0.217,0.217,0.125,0.080,northwest,1.4,No
2022/11/09,04:50,0.157,0.144,0.229,0.218,0.217,0.125,0.080,north-northwest,1.6,No
2022/11/09,05:00,0.158,0.142,0.228,0.219,0.217,0.125,0.080,north-northwest,1.2,No
2022/11/09,05:10,0.158,0.142,0.227,0.217,0.217,0.125,0.080,north-northwest,1.8,No
2022/11/09,05:20,0.158,0.142,0.228,0.219,0.217,0.124,0.080,northwest,1.2,No
2022/11/09,05:30,0.157,0.143,0.228,0.218,0.216,0.124,0.080,north-northwest,1.5,No
2022/11/09,05:40,0.157,0.143,0.228,0.218,0.216,0.125,0.079,north-northwest,2.6,No
2022/11/09,05:50,0.158,0.143,0.228,0.219,0.218,0.125,0.079,north-northwest,3.2,No
2022/11/09,06:00,0.158,0.143,0.228,0.218,0.219,0.124,0.080,northwest,2.9,No
2022/11/09,06:10,0.158,0.143,0.228,0.218,0.218,0.125,0.080,northwest,4.1,No
2022/11/09,06:20,0.157,0.143,0.229,0.219,0.217,0.125,0.080,northwest,5.0,No
2022/11/09,06:30,0.159,0.144,0.228,0.219,0.216,0.125,0.080,north-northwest,4.1,No
2022/11/09,06:40,0.157,0.143,0.229,0.217,0.217,0.125,0.080,northwest,3.5,No
2022/11/09,06:50,0.158,0.143,0.228,0.218,0.217,0.125,0.080,west-northwest,3.2,No
2022/11/09,07:00,0.157,0.143,0.227,0.219,0.217,0.125,0.080,west-northwest,2.7,No
2022/11/09,07:10,0.158,0.143,0.228,0.218,0.217,0.124,0.080,west,2.6,No
2022/11/09,07:20,0.158,0.143,0.228,0.218,0.217,0.125,0.080,west-southwest,2.5,No
2022/11/09,07:30,0.158,0.142,0.228,0.219,0.217,0.125,0.080,west,4.5,No
2022/11/09,07:40,0.157,0.143,0.228,0.217,0.217,0.124,0.080,west-northwest,3.7,No
2022/11/09,07:50,0.158,0.144,0.228,0.218,0.216,0.124,0.080,west-northwest,3.8,No
2022/11/09,08:00,0.158,0.143,0.228,0.218,0.216,0.125,0.079,west-northwest,4.0,No
2022/11/09,08:10,0.159,0.143,0.228,0.217,0.217,0.125,0.079,west-northwest,2.6,No
2022/11/09,08:20,0.158,0.143,0.228,0.218,0.218,0.125,0.080,north-northwest,1.6,No
2022/11/09,08:30,0.157,0.143,0.227,0.217,0.216,0.124,0.079,north,1.4,No
2022/11/09,08:40,0.158,0.143,0.228,0.216,0.218,0.124,0.081,north-northwest,1.4,No
2022/11/09,08:50,0.158,0.142,0.227,0.217,0.216,0.123,0.080,northwest,1.2,No
2022/11/09,09:00,0.158,0.143,0.228,0.218,0.217,0.124,0.081,west-northwest,1.5,No
2022/11/09,09:10,0.157,0.143,0.227,0.216,0.217,0.124,0.079,north-northwest,1.0,No
2022/11/09,09:20,0.157,0.143,0.228,0.218,0.218,0.124,0.080,northwest,1.7,No
2022/11/09,09:30,0.157,0.142,0.228,0.217,0.217,0.125,0.080,northwest,1.9,No
2022/11/09,09:40,0.157,0.142,0.228,0.218,0.218,0.124,0.079,northwest,1.9,No
2022/11/09,09:50,0.158,0.143,0.227,0.216,0.215,0.124,0.079,west-southwest,0.9,No
2022/11/09,10:00,0.156,0.142,0.228,0.217,0.217,0.125,0.080,east,2.0,No
2022/11/09,10:10,0.157,0.142,0.228,0.219,0.214,0.124,0.080,east,1.6,No
2022/11/09,10:20,0.156,0.143,0.228,0.216,0.214,0.126,0.080,east,1.4,No
2022/11/09,10:30,0.156,0.143,0.226,0.219,0.218,0.125,0.081,east-southeast,1.1,No
2022/11/09,10:40,0.157,0.141,0.228,0.218,0.214,0.125,0.079,southeast,1.7,No
2022/11/09,10:50,0.156,0.143,0.226,0.216,0.215,0.124,0.080,east-southeast,2.6,No
2022/11/09,11:00,0.155,0.142,0.226,0.219,0.217,0.124,0.080,east-southeast,2.7,No
2022/11/09,11:10,0.157,0.141,0.227,0.218,0.215,0.125,0.080,southeast,1.7,No
2022/11/09,11:20,0.157,0.143,0.222,0.216,0.214,0.124,0.080,south-southeast,1.6,No
2022/11/09,11:30,0.156,0.142,0.227,0.218,0.216,0.125,0.080,southeast,1.5,No
2022/11/09,11:40,0.155,0.141,0.227,0.216,0.216,0.124,0.079,west,2.5,No
2022/11/09,11:50,0.155,0.143,0.226,0.217,0.211,0.125,0.080,west,4.6,No
2022/11/09,12:00,0.157,0.142,0.228,0.219,0.214,0.125,0.079,west-northwest,6.5,No
2022/11/09,12:10,0.157,0.142,0.226,0.217,0.217,0.124,0.079,west-northwest,4.4,No
2022/11/09,12:20,0.156,0.143,0.225,0.216,0.217,0.125,0.080,west,2.8,No
2022/11/09,12:30,0.155,0.142,0.228,0.220,0.215,0.125,0.080,north-northeast,1.4,No
2022/11/09,12:40,0.158,0.142,0.228,0.218,0.216,0.124,0.080,-,CALM,No
2022/11/09,12:50,0.158,0.142,0.225,0.217,0.216,0.125,0.080,north-northwest,0.7,No
2022/11/09,13:00,0.155,0.142,0.229,0.218,0.216,0.123,0.079,southeast,1.4,No
2022/11/09,13:10,0.156,0.142,0.227,0.218,0.216,0.126,0.080,southeast,1.8,No
2022/11/09,13:20,0.157,0.143,0.227,0.218,0.218,0.125,0.079,east-southeast,3.3,No
2022/11/09,13:30,0.158,0.143,0.228,0.216,0.216,0.125,0.080,east-southeast,3.6,No
2022/11/09,13:40,0.157,0.142,0.229,0.220,0.215,0.125,0.080,east-southeast,2.9,No
2022/11/09,13:50,0.157,0.142,0.227,0.218,0.218,0.125,0.080,east-southeast,3.3,No
2022/11/09,14:00,0.157,0.142,0.228,0.217,0.216,0.123,0.080,east-southeast,1.8,No
2022/11/09,14:10,0.157,0.142,0.228,0.220,0.216,0.123,0.080,east-southeast,2.3,No
2022/11/09,14:20,0.157,0.143,0.230,0.217,0.219,0.122,0.080,east-southeast,2.3,No
2022/11/09,14:30,0.158,0.142,0.228,0.220,0.216,0.123,0.080,east-southeast,1.7,No
2022/11/09,14:40,0.157,0.142,0.229,0.216,0.219,0.124,0.080,-,CALM,No
2022/11/09,14:50,0.158,0.145,0.228,0.217,0.217,0.125,0.079,south-southwest,1.0,No
2022/11/09,15:00,0.157,0.142,0.228,0.219,0.218,0.124,0.080,south,0.6,No
2022/11/09,15:10,0.159,0.142,0.229,0.219,0.216,0.125,0.079,west,1.7,No
2022/11/09,15:20,0.156,0.141,0.227,0.218,0.218,0.124,0.079,west,0.6,No
2022/11/09,15:30,0.158,0.142,0.229,0.219,0.215,0.124,0.080,northwest,0.6,No
2022/11/09,15:40,0.157,0.143,0.229,0.220,0.218,0.125,0.080,-,CALM,No
2022/11/09,15:50,0.158,0.143,0.227,0.218,0.217,0.125,0.079,west-northwest,0.6,No
2022/11/09,16:00,0.156,0.143,0.229,0.219,0.217,0.125,0.080,west-northwest,0.9,No
2022/11/09,16:10,0.158,0.143,0.228,0.219,0.216,0.125,0.079,-,CALM,No
2022/11/09,16:20,0.158,0.143,0.229,0.219,0.219,0.125,0.080,west,0.8,No
2022/11/09,16:30,0.157,0.143,0.230,0.220,0.217,0.125,0.080,west,1.5,No
2022/11/09,16:40,0.158,0.142,0.228,0.220,0.219,0.125,0.079,west,3.1,No
2022/11/09,16:50,0.157,0.143,0.230,0.218,0.217,0.124,0.080,west,3.4,No
2022/11/09,17:00,0.159,0.143,0.228,0.222,0.219,0.125,0.079,west,2.4,No
2022/11/09,17:10,0.157,0.142,0.228,0.218,0.217,0.125,0.079,west,4.2,No
2022/11/09,17:20,0.157,0.143,0.228,0.219,0.217,0.125,0.079,west,3.7,No
2022/11/09,17:30,0.158,0.142,0.228,0.220,0.218,0.126,0.079,west-southwest,3.6,No
2022/11/09,17:40,0.157,0.143,0.228,0.219,0.217,0.125,0.079,west-southwest,4.0,No
2022/11/09,17:50,0.158,0.143,0.228,0.220,0.218,0.125,0.080,west-southwest,4.5,No
2022/11/09,18:00,0.159,0.143,0.230,0.220,0.218,0.126,0.080,west-southwest,4.1,No
2022/11/09,18:10,0.158,0.143,0.229,0.219,0.216,0.125,0.080,west,4.0,No
2022/11/09,18:20,0.158,0.144,0.229,0.219,0.218,0.126,0.080,west,5.8,No
2022/11/09,18:30,0.157,0.143,0.229,0.219,0.217,0.125,0.080,west-northwest,4.3,No
2022/11/09,18:40,0.157,0.142,0.229,0.219,0.217,0.125,0.080,west-northwest,4.4,No
2022/11/09,18:50,0.157,0.144,0.228,0.219,0.217,0.126,0.080,west-northwest,4.1,No
2022/11/09,19:00,0.158,0.143,0.228,0.220,0.216,0.125,0.079,west,4.5,No
2022/11/09,19:10,0.157,0.143,0.229,0.219,0.218,0.126,0.080,west,4.3,No
2022/11/09,19:20,0.158,0.143,0.228,0.220,0.219,0.126,0.080,west-southwest,3.8,No
2022/11/09,19:30,0.158,0.143,0.229,0.220,0.216,0.125,0.079,west-southwest,4.2,No
2022/11/09,19:40,0.158,0.143,0.228,0.219,0.217,0.125,0.080,west-southwest,3.4,No
2022/11/09,19:50,0.157,0.143,0.228,0.219,0.218,0.124,0.080,west,3.5,No
2022/11/09,20:00,0.157,0.143,0.228,0.219,0.217,0.125,0.080,west,4.0,No
2022/11/09,20:10,0.157,0.143,0.228,0.219,0.218,0.125,0.080,west,3.8,No
2022/11/09,20:20,0.158,0.143,0.228,0.220,0.217,0.125,0.080,west,3.0,No
2022/11/09,20:30,0.158,0.143,0.229,0.220,0.217,0.126,0.079,west,2.8,No
2022/11/09,20:40,0.157,0.143,0.230,0.220,0.216,0.125,0.079,west,2.8,No
2022/11/09,20:50,0.158,0.143,0.229,0.218,0.216,0.125,0.080,west,3.0,No
2022/11/09,21:00,0.157,0.144,0.228,0.219,0.218,0.125,0.079,west,3.5,No
2022/11/09,21:10,0.157,0.143,0.227,0.219,0.217,0.125,0.080,west-southwest,2.7,No
2022/11/09,21:20,0.157,0.143,0.229,0.219,0.217,0.124,0.079,west-southwest,2.5,No
2022/11/09,21:30,0.157,0.142,0.229,0.219,0.218,0.125,0.079,west-southwest,2.7,No
2022/11/09,21:40,0.158,0.143,0.229,0.219,0.218,0.124,0.079,west-southwest,3.4,No
2022/11/09,21:50,0.158,0.143,0.229,0.220,0.217,0.126,0.080,west-southwest,3.3,No
2022/11/09,22:00,0.158,0.144,0.229,0.220,0.217,0.125,0.080,west-southwest,3.0,No
2022/11/09,22:10,0.158,0.143,0.228,0.221,0.218,0.124,0.079,southwest,3.1,No
2022/11/09,22:20,0.157,0.144,0.229,0.220,0.219,0.125,0.080,southwest,3.0,No
2022/11/09,22:30,0.157,0.144,0.228,0.219,0.217,0.125,0.079,southwest,2.7,No
2022/11/09,22:40,0.158,0.143,0.228,0.220,0.216,0.126,0.080,south-southwest,2.2,No
2022/11/09,22:50,0.158,0.144,0.229,0.219,0.218,0.126,0.079,south-southwest,1.8,No
2022/11/09,23:00,0.158,0.143,0.229,0.219,0.217,0.125,0.080,south,2.7,No
2022/11/09,23:10,0.158,0.143,0.228,0.219,0.217,0.126,0.079,south,2.8,No
2022/11/09,23:20,0.158,0.143,0.229,0.218,0.218,0.125,0.080,south-southwest,3.5,No
2022/11/09,23:30,0.158,0.144,0.228,0.220,0.217,0.125,0.080,south-southwest,3.1,No
2022/11/09,23:40,0.158,0.143,0.230,0.220,0.217,0.125,0.080,south-southwest,3.2,No
2022/11/09,23:50,0.158,0.143,0.229,0.219,0.218,0.125,0.080,south-southwest,3.1,No
